Regional Weather Roundup
Issued by NWS State College, PA

Home | Current Version | Previous Version | Graphics & Text | Print | Product List | Glossary Off
Versions: 1 2 3 4 5 6 7 8 9 10 11 12 13 14 15 16 17 18 19 20 21 22 23 24 25 26 27 28 29 30 31 32 33 34 35 36 37 38 39 40 41 42 43 44 45 46 47 48 49 50

000
ASUS41 KCTP 241603
RWRCTP

REGIONAL WEATHER ROUNDUP
NATIONAL WEATHER SERVICE STATE COLLEGE PA
1200 PM EDT SUN JUL 24 2016

Note: "fair" indicates few or no clouds below 12,000 feet with no
significant weather and/or obstructions to visibility.

* = STATION THAT DOES NOT REPORT PRECIPITATION /E.G. RAIN...SNOW...ETC/
    THUNDER OR FOG.

PAZ002>004-007>009-013>016-020>023-029>032-241700-
WESTERN PENNSYLVANIA

CITY           SKY/WX    TMP DP  RH WIND       PRES   REMARKS
ERIE           MOSUNNY   84  64  50 SW7       30.00F
MEADVILLE      CLOUDY    81  64  56 S7        30.04F
FRANKLIN*      CLOUDY    81  64  57 S6        30.07F
NEW CASTLE     FAIR      88  62  41 VRB6      30.03F
BEAVER COUNTY  NOT AVBL
BUTLER*        SUNNY     88  59  37 CALM      30.07F
PITTSBURGH INT PTSUNNY   86  67  52 S7        30.03F
PITTSBURGH     SUNNY     86  71  60 VRB5      30.04F
INDIANA*       SUNNY     88  64  45 VRB5      30.09S
LATROBE        MOSUNNY   86  73  66 SW12      30.06R
WASHINGTON CO* PTSUNNY   88  72  58 SW8       30.05F
$$

PAZ004>006-010>012-017>019-024>028-033>037-041-042-045-046-049>053-241700-
CENTRAL PENNSYLVANIA

CITY           SKY/WX    TMP DP  RH WIND       PRES   REMARKS
BRADFORD       CLOUDY    79  59  50 W7        30.10S
DUBOIS         CLOUDY    84  56  38 VRB6      30.07S
CLEARFIELD     CLOUDY    86  59  39 VRB7      30.07R
JOHNSTOWN      PTSUNNY   83  65  54 VRB7      30.11R
ALTOONA        MOSUNNY   89  59  36 VRB7      30.07S
STATE COLLEGE  SUNNY     84  61  45 CALM      30.06R
WILLIAMSPORT   MOSUNNY   87  61  41 CALM      30.00F
SELINSGROVE    CLOUDY    86  61  42 CALM      30.02S
FT INDIANTOWN  CLOUDY    89  57  34 VRB2      30.02R
CAPITAL CITY   MOSUNNY   89  61  38 SW5       30.02R
HARRISBURG     CLOUDY    88  65  46 S3        30.01R
YORK           PTSUNNY   88  62  41 VRB3      30.03R
$$

PAZ038>040-043-044-047-048-054-055-060>062-067>071-241700-
EASTERN PENNSYLVANIA

CITY           SKY/WX    TMP DP  RH WIND       PRES   REMARKS
SCRANTON       SUNNY     87  59  38 VRB5      30.02F
MOUNT POCONO   SUNNY     83  55  38 N9        30.07S
ALLENTOWN      SUNNY     89  59  36 CALM      30.00S
QUAKERTOWN*    SUNNY     90  59  35 N3        30.01S
READING        MOSUNNY   90  58  33 S5        29.99S
LANCASTER      PTSUNNY   86  62  44 VRB3      30.02R
COATESVILLE    MOSUNNY   86  63  45 CALM      30.04R
POTTSTOWN      SUNNY     90  58  33 E3        30.01S
BLUE BELL      SUNNY     86  61  42 CALM      29.99S
DOYLESTOWN     SUNNY     86  59  39 CALM      29.99F
WILLOW GROVE   NOT AVBL
NORTH PHILA    SUNNY     90  60  36 VRB6      30.01R
PHILADELPHIA   PTSUNNY   90  61  37 SE7       29.99S
$$




USA.gov is the U.S. government's official web portal to all federal, state and local government web resources and services.